Dewpoint
72 70 70 71 70 70 72 74 73 75 75 73 73 73 73 72 72 73 72 72 73 70
72 71 71 73 73 71 73 71 73 74 74 74 74 73 73 71 73 74 74 73 73 71
72 72 72 72 73 73 73 74 73 74 74 74 74 74 74 75 75 74 72 71 73 73
72 72 73 73 73 73 73 73 73 73 73 74 74 75 75 75 74 74 74 73 73 73
71 72 72 72 73 73 73 74 74 74 74 74 74 74 75 73 73 73 73 73 73 73
72 72 73 73 73 74 74 74 74 73 73 73 74 74 75 74 74 74 73 73 73 72
71 71 71 72 72 72 74 74 74 73 73 73 72 72 72 72 73 73 72 74 74 73
68 70 69 70 70 71 72 73 74 74 73 73 72 70 71 71 71 71 72 73 74 74
68 69 68 69 68 69 70 71 72 72 73 73 72 63 65 70 73 74 74 74 75 74
66 65 66 66 67 67 68 69 69 70 71 71 69 61 62 66 73 73 73 74 73 73
63 63 64 63 63 63 65 66 67 69 70 66 61 58 60 64 72 73 72 72 72 72
59 60 60 59 60 62 62 64 68 68 65 61 58 54 56 63 64 64 65 67 66 65
56 58 59 60 61 61 62 61 59 58 56 54 52 51 52 57 57 59 59 61 63 61
54 54 55 55 56 57 56 55 56 55 55 52 51 48 49 50 53 54 53 54 55 56
Lifted_Index
-3 -3 -3 -3 -3 -4 -4 -4 -4 -5 -5 -4 -4 -4 -4 -5 -5 -5 -6 -6 -6 -5
-3 -3 -3 -3 -4 -4 -4 -4 -4 -4 -5 -4 -4 -4 -4 -5 -5 -5 -5 -5 -5 -5
-3 -3 -3 -4 -4 -4 -4 -4 -4 -4 -4 -5 -5 -4 -4 -5 -5 -5 -5 -5 -5 -5
-3 -3 -3 -4 -4 -4 -4 -4 -4 -4 -4 -4 -5 -5 -5 -5 -5 -5 -5 -5 -5 -5
-3 -3 -3 -4 -4 -4 -4 -4 -4 -4 -4 -4 -5 -5 -5 -5 -5 -5 -5 -5 -4 -4
-3 -3 -3 -3 -4 -4 -4 -5 -5 -5 -4 -4 -5 -5 -5 -5 -5 -5 -5 -5 -5 -5
-2 -2 -2 -2 -3 -3 -4 -5 -5 -5 -4 -4 -4 -4 -4 -4 -4 -4 -5 -5 -5 -5
-1 -1 -1 -1 -1 -2 -3 -3 -4 -5 -5 -4 -4 -3 -3 -4 -4 -4 -5 -5 -5 -5
0 0 -0 -0 -0 -1 -1 -2 -3 -4 -4 -4 -3 -3 -3 -3 -4 -5 -5 -5 -5 -5
0 0 0 0 0 1 0 -0 -1 -2 -3 -2 -2 -2 -3 -3 -4 -5 -5 -5 -5 -5
-0 -0 0 0 1 1 1 1 -0 -1 -1 -1 -1 -1 -2 -2 -3 -4 -3 -3 -3 -3
-1 -0 -0 -0 1 1 1 1 0 -0 -0 -0 -0 -1 -1 -1 -2 -2 -2 -2 -2 -2
0 0 0 0 1 1 1 1 1 0 1 1 1 1 0 0 -0 -0 -0 -1 -1 -0
1 1 1 1 1 1 1 1 1 1 1 2 2 1 1 1 1 1 0 0 0 1